Tracking 19576 objects as of 18-Feb-2019
HD Live streaming from Space Station
objects crossing your sky now

USA 43

Track USA 43 now!
USA 43 is classified as:


NORAD ID: 20202
Int'l Code: 1989-069A
Perigee: 36,219.6 km
Apogee: 36,314.7 km
Inclination: 15.2 °
Period: 1,460.3 minutes
Semi major axis: 42638 km
RCS: Unknown
Launch date: September 4, 1989
Source: United States (US)
Launch site: AIR FORCE EASTERN TEST RANGE (AFETR)
aabbcc
Your satellite tracking list
Your tracking list is empty




NASA's NSSDC Master Catalog

Two Line Element Set (TLE):
1 20202U 89069A   19025.20702320 0.00000000  00000-0  00000-0 0    04
2 20202  15.2335 357.9826 0011148 212.5299 147.4134  0.98606553    08
Source of the keplerian elements: McCants